Aérodrome :
LOGIN :

S'inscrire | Disclaimer

   EN    FR    IT 

 










Légende :    VFR   VFR Marginal   IFR   IFR Intensif   IFR Très Intensif
Visi : 
Plafond : 
>= 8 km
>= 3000ft
5 à 8 km
1000 à 3000 ft
1500m à 5 km
500 à 1000 ft
800 à 1500m
200 à 500 ft
< 800m
< 200 ft
Symboles :   Orages  Brouillard  Fortes neiges  Fortes précipitations  Vent > 20 kt
SIGMETs :   Divers  Orages  Givrage  Turbulence  Onde Orograph.  Cendres Volcan.






- Altitude de l'aérodrome : 17 ft
- Code IATA : GRS


LIRS - Grosseto

DERNIER METAR :
  • 171255Z 22005KT 130V290 9999 SCT030 23/10 Q1019 RMK SCT VIS MIN 9999 WIND THR03 22005KT WIND THR21 23004KT BLU

METARs EXPIRÉS :
  • 171155Z 21007KT 9999 SCT030 23/12 Q1019 RMK SCT VIS MIN 9999 WIND THR03 24006KT WIND THR21 26005KT BLU
  • 171055Z 22004KT 100V270 9999 SCT030 22/10 Q1020

TAF TAF LIRS
Valide du 17 à 12h jusqu'au 17 à 21h UTC


171100Z 1712/1721 24008KT 9999 FEW030



MET'MAP, la Météo Aéronautique d'un coup d'oeil ! - Copyright ORBIFLY Décembre 2007 - Disclaimer

ORBIFLY MET'MAP TEAM :

Programmation & Développement : Alexandra Zaïnal
Conception & Développement : Baudouin d'Aumeries
Co-Programmation & Développement : Marc-Olivier Méhu
Soutien technique & logistique : Manuel Goepfert

Contact : metmap@orbifly.com




SOURCES & CREDITS :

   NOAA